{"data":{"norad_id":64922,"epoch":"2026-05-24T23:18:36.739584Z","epoch_age_seconds":70700,"freshness":"FRESH","line1":"1 64922U 25157U   26144.97125856  .00021470  00000+0  73482-3 0  9993","line2":"2 64922  53.1609 351.2868 0000918  74.9588 285.1514 15.30204566 47752","mean_motion":15.30204566,"eccentricity":9.18e-5,"inclination_deg":53.1609,"raan_deg":351.2868,"arg_perigee_deg":74.9588,"mean_anomaly_deg":285.1514,"bstar":0.00073482,"rev_number":4775,"period_min":94.105064904113,"perigee_km":474.57229973181,"apogee_km":475.83057266869,"semimajor_km":6853.3384362003,"source":"CELESTRAK","updated_at":"2026-05-25T13:38:20.624540Z"}}